Vertical_Velocity
-2 1 -0 -1 -1 -2 -0 0 1 -1 -0 -1 -1 0 -1 -1 3 0 2 0 -0 -2 -4 -5 -5 -2 -4 -2 -2 -3 -4 -1 -2 -2 -3 -2 -2 -0 -5 -3 -1 4 -8 -7 -7
0 -6 2 -3 -3 -2 -3 -1 -0 -1 -1 -1 -2 -1 -1 -2 2 1 1 -1 0 -2 -4 3 -2 -3 -5 -3 -5 -4 -1 -1 -0 -0 -3 -1 -1 -6 -4 -4 0 5 9 -2 1
-4 -5 -0 -2 -4 -2 -2 -2 -2 -0 0 0 -1 -2 -1 -1 2 1 0 -1 -0 0 1 -2 -5 -2 -3 -3 1 -3 -2 -2 -2 -2 2 -4 -1 -5 -2 2 0 -23 -19 8 1
-3 -2 1 -1 -6 0 -2 -1 -0 -2 1 1 -0 -1 -1 -2 -0 -2 -3 -2 -0 -1 4 -2 -1 -3 -3 -1 -3 -1 -1 -0 -2 -2 -4 -3 -7 -8 -7 -8 -5 -1 -10 -10 -5
1 -2 5 2 -4 -4 -4 -3 -1 -0 2 -0 -1 -1 -1 0 1 -2 -2 -1 -2 1 3 1 -0 -3 -2 -1 -1 -2 -4 -2 -1 -4 -2 -3 -4 4 -4 -2 -3 0 -4 -4 -2
-2 4 -3 -0 -0 -1 0 -3 -4 -0 -1 1 -0 0 -1 -2 1 1 -1 -0 -2 -3 0 1 -0 -0 -3 0 -2 -2 -1 0 -4 -2 2 -0 -5 7 2 0 3 -5 1 -2 -4
2 -2 1 -1 -1 2 -2 -3 1 -6 1 -0 -1 0 -1 2 1 1 -1 0 -1 -1 -0 -2 -2 3 1 -3 0 -0 -3 -4 -8 3 1 1 2 -3 -3 2 -7 -3 -0 -4 -3
3 -1 1 -8 5 0 -2 -2 -2 -3 -4 2 -1 -3 1 -0 2 -1 1 0 -1 -2 1 -1 -1 -2 -7 1 -2 -4 -1 -3 6 7 4 0 -1 -5 -2 -7 -3 0 2 -2 0
0 0 -2 2 -11 -1 1 2 -4 -6 0 1 1 -3 1 -0 2 2 -1 -0 -0 -3 1 -0 -2 -5 5 -3 1 1 -5 -1 -7 1 0 1 2 1 1 -1 -3 -4 -0 -1 1
-1 -2 -2 -2 8 2 -3 1 -1 -2 -1 -1 1 3 -3 -4 0 1 -1 -1 -1 1 2 -3 -2 2 -2 -7 -3 -4 -4 -5 2 -0 6 7 -5 1 0 -5 -4 -3 -1 1 2
-3 1 1 -0 1 1 -6 2 -1 -2 -3 -2 -0 5 3 -5 2 1 2 -1 -0 1 -2 -1 0 -4 -1 -2 -1 -1 3 -3 6 0 -3 -5 -2 2 -2 4 -8 0 -1 2 1
-8 -2 -2 0 -1 8 3 -5 -9 -3 -2 1 -2 -3 -3 -4 0 0 -3 2 -0 -2 -2 -2 -3 -1 -2 -1 1 2 -1 1 -5 9 1 3 1 -1 -2 1 -9 -6 -2 0 6
3 -2 1 -0 -1 4 1 1 -3 -7 8 -5 -11 -2 1 -3 0 -1 -2 1 1 -1 1 -2 -1 -3 -3 -2 -2 -3 -1 0 4 -1 -0 1 1 -2 6 9 7 7 11 10 2
2 -5 2 -1 -6 4 4 3 -1 4 -2 -4 -3 2 -3 2 2 -0 1 -2 1 -2 -0 -1 -2 -1 1 1 -3 -5 6 4 1 -0 -1 -1 -5 -2 -3 -1 -2 -1 -3 -0 2
4 -3 -5 -8 2 -2 4 2 -2 0 3 0 -1 2 -1 1 1 0 -0 -1 -0 -0 -2 -1 -0 -0 -3 -4 -3 -1 3 -1 1 -1 -1 -0 0 1 -1 -23 -9 -7 -4 -1 3
4 1 4 -3 5 6 -0 6 2 2 -3 -1 2 -1 1 -2 0 -0 0 0 -3 0 -1 -2 -3 -3 -3 -1 -2 -5 2 -2 1 -2 -3 3 2 -1 -9 1 -6 5 2 -1 4
6 12 -3 3 -0 -2 1 -0 1 -0 -3 1 -2 -5 -4 -0 -3 -2 -1 0 -1 2 -0 1 1 -2 -2 1 -1 -5 -6 -5 -9 -8 -7 5 0 -0 4 1 -3 -2 -8 2 5
-0 -4 0 1 0 0 2 2 3 -1 -2 -3 -5 -1 3 1 2 -0 -3 -0 -1 0 0 0 -1 -1 -3 -2 -3 -4 -3 -2 -3 -2 -5 6 -2 -2 4 2 4 12 1 4 5
-3 14 -6 21 1 -2 3 -0 -3 -0 -5 -3 -1 -1 2 3 0 1 -0 -0 -1 -1 0 -1 -1 1 -3 1 -2 -5 -5 0 -3 1 2 4 -1 1 8 4 -3 2 -4 3 -7
-8 2 -3 15 -0 1 3 -2 -3 -2 1 2 0 -0 0 -0 -1 1 -0 -0 0 -1 -0 0 0 -3 0 -0 -3 -6 -0 1 -1 -6 -3 -2 -0 -3 -9 -11 -13 -6 5 -7 2
37 5 -13 10 2 -2 -2 -2 -3 -1 4 3 -3 0 -2 -2 -1 -1 -0 1 2 -1 0 -1 -0 -2 1 -1 -1 -3 -0 -1 -2 1 -5 -1 -3 -1 1 -0 -9 -3 -3 -1 -1
2 5 -4 1 5 -1 -2 -1 -1 0 5 1 2 2 1 -4 -1 1 -1 3 0 1 -0 -1 -1 -0 -1 -1 -1 -1 -1 -3 -2 -2 1 -0 -7 -5 4 3 3 -8 3 2 -1
14 2 8 1 -1 -2 -1 -0 2 2 3 -1 0 -0 1 -7 -1 -2 -1 -1 -2 2 1 -1 -1 -1 -2 1 -0 -1 -0 -1 -3 -1 -1 -3 -4 2 1 10 6 -9 3 1 -1
8 9 4 1 -4 -1 2 -1 -0 1 0 -0 -3 2 2 -2 -6 -0 -0 2 0 0 1 -2 -0 -1 -4 0 -0 1 0 -0 -1 -2 0 -7 -4 1 -1 -2 0 3 -6 8 -6
8 1 -4 -3 -9 -2 7 0 -1 2 2 1 -0 2 1 -5 -4 -3 0 1 1 -1 -0 -2 1 -1 -0 -1 -1 -1 1 1 -0 -2 -2 2 -1 -3 -2 -4 -4 -3 -2 0 6
42 11 -15 -4 1 7 4 -4 1 1 3 -0 -2 -0 1 -5 1 -2 0 -1 0 0 -2 0 0 -2 1 1 1 -2 0 -1 -0 0 -4 1 -0 -5 -1 -1 4 6 -6 -5 2
11 7 11 3 -2 6 -4 -2 -0 2 0 0 2 1 0 0 1 -1 -4 -1 -0 0 -0 1 -0 -1 -1 -1 -0 -3 -1 -1 -1 -1 1 1 0 -2 2 -1 1 2 3 -4 -2
Height
3142 3142 3141 3139 3137 3135 3132 3129 3127 3125 3122 3120 3117 3115 3113 3112 3111 3109 3109 3108 3103 3099 3096 3092 3088 3084 3081 3078 3075 3073 3073 3072 3070 3068 3066 3064 3061 3059 3056 3052 3046 3044 3038 3032 3025
3141 3139 3138 3137 3135 3133 3131 3129 3126 3123 3121 3119 3116 3113 3112 3110 3110 3107 3107 3103 3100 3097 3094 3091 3085 3081 3079 3076 3073 3072 3070 3068 3067 3065 3063 3062 3059 3054 3050 3048 3042 3035 3029 3019 3011
3138 3137 3136 3135 3134 3132 3130 3128 3125 3122 3119 3117 3114 3112 3110 3108 3108 3105 3103 3101 3098 3095 3092 3086 3081 3080 3078 3074 3072 3069 3069 3067 3066 3064 3062 3057 3054 3051 3045 3042 3038 3025 3016 3009 3000
3137 3135 3133 3133 3132 3130 3128 3125 3123 3121 3118 3116 3113 3110 3109 3107 3109 3104 3102 3099 3097 3093 3091 3084 3081 3079 3077 3073 3070 3069 3066 3064 3063 3061 3059 3057 3053 3049 3045 3041 3034 3022 3012 3003 2996
3133 3131 3131 3130 3129 3126 3126 3124 3121 3119 3116 3113 3111 3109 3107 3106 3104 3103 3100 3098 3095 3093 3088 3083 3080 3077 3074 3072 3069 3066 3064 3063 3061 3058 3056 3054 3052 3048 3044 3039 3030 3020 3009 2998 2991
3129 3128 3127 3128 3126 3124 3122 3121 3120 3116 3114 3112 3109 3107 3105 3104 3102 3100 3099 3096 3094 3090 3086 3082 3079 3075 3072 3070 3068 3067 3064 3062 3060 3057 3054 3052 3049 3044 3042 3035 3027 3013 3002 2993 2985
3125 3125 3123 3123 3123 3122 3119 3117 3117 3114 3112 3110 3107 3105 3103 3102 3101 3098 3097 3095 3092 3088 3084 3081 3078 3076 3073 3068 3065 3064 3062 3059 3057 3055 3053 3051 3048 3043 3038 3033 3022 3009 2999 2989 2979
3120 3120 3119 3119 3120 3118 3116 3114 3112 3111 3109 3107 3105 3103 3100 3099 3098 3097 3095 3093 3090 3086 3083 3079 3077 3073 3068 3067 3065 3062 3059 3056 3056 3054 3053 3052 3045 3040 3037 3029 3018 3007 2996 2986 2977
3116 3114 3113 3113 3114 3114 3112 3110 3109 3108 3106 3103 3103 3100 3099 3097 3096 3095 3093 3091 3088 3084 3082 3078 3074 3070 3072 3067 3064 3062 3059 3056 3054 3053 3050 3048 3042 3037 3034 3027 3016 3004 2993 2984 2975
3111 3109 3108 3108 3107 3110 3108 3106 3104 3104 3104 3101 3099 3100 3098 3096 3093 3091 3090 3088 3086 3083 3080 3076 3073 3072 3068 3062 3064 3059 3056 3055 3053 3052 3048 3047 3042 3038 3033 3026 3017 3004 2992 2983 2975
3107 3105 3104 3104 3104 3104 3104 3103 3103 3102 3100 3099 3098 3095 3092 3093 3091 3088 3087 3085 3082 3080 3076 3073 3074 3069 3066 3063 3060 3058 3056 3053 3050 3047 3045 3043 3040 3038 3034 3022 3011 3002 2991 2983 2975
3104 3103 3101 3100 3100 3099 3098 3097 3096 3096 3094 3092 3091 3091 3088 3088 3087 3085 3085 3084 3080 3077 3074 3074 3072 3069 3067 3064 3061 3057 3054 3051 3048 3046 3044 3041 3039 3036 3034 3023 3012 3001 2992 2982 2975
3100 3100 3098 3097 3095 3095 3093 3093 3092 3093 3089 3086 3086 3085 3083 3084 3082 3082 3082 3080 3077 3075 3073 3071 3072 3068 3066 3061 3059 3055 3051 3048 3045 3042 3041 3040 3038 3036 3035 3027 3018 3003 2995 2986 2976
3097 3096 3095 3094 3094 3091 3090 3090 3089 3088 3086 3081 3079 3078 3079 3079 3079 3079 3079 3079 3075 3074 3070 3070 3069 3068 3065 3061 3057 3052 3050 3046 3042 3040 3041 3040 3040 3036 3030 3023 3015 3003 2994 2985 2977
3093 3093 3092 3091 3089 3090 3088 3086 3085 3087 3084 3079 3077 3077 3077 3079 3078 3076 3076 3074 3073 3071 3072 3069 3068 3066 3062 3058 3055 3052 3044 3042 3041 3039 3041 3040 3039 3035 3030 3017 3010 3004 2996 2988 2981
3088 3089 3088 3087 3086 3086 3084 3083 3084 3086 3078 3076 3075 3075 3076 3076 3075 3074 3073 3073 3071 3069 3067 3066 3066 3065 3062 3057 3054 3051 3044 3041 3040 3040 3042 3040 3038 3038 3031 3024 3018 3010 3001 2991 2983
3082 3084 3083 3083 3083 3083 3081 3081 3083 3080 3078 3075 3073 3073 3073 3073 3073 3072 3071 3070 3070 3069 3065 3064 3063 3063 3061 3057 3054 3051 3042 3042 3047 3045 3046 3040 3039 3040 3038 3031 3022 3012 3003 2994 2986
3077 3078 3078 3079 3078 3078 3078 3079 3077 3073 3072 3071 3072 3071 3070 3070 3069 3069 3069 3068 3067 3067 3063 3063 3062 3062 3061 3056 3054 3050 3050 3051 3063 3059 3047 3039 3042 3043 3039 3033 3027 3019 3010 3002 2990
3072 3072 3073 3073 3072 3073 3075 3074 3071 3069 3070 3068 3068 3067 3067 3067 3067 3066 3066 3066 3065 3064 3065 3061 3062 3062 3060 3058 3056 3054 3054 3054 3054 3053 3050 3043 3044 3042 3039 3032 3026 3018 3013 3003 2995
3065 3066 3066 3069 3067 3068 3069 3068 3067 3066 3065 3065 3065 3064 3064 3064 3066 3065 3064 3064 3063 3063 3062 3062 3062 3060 3060 3058 3057 3056 3056 3055 3055 3062 3061 3044 3043 3041 3034 3028 3025 3018 3011 3007 3000
3059 3060 3061 3062 3063 3064 3062 3062 3061 3062 3061 3062 3060 3059 3060 3062 3063 3064 3064 3063 3062 3061 3061 3060 3061 3062 3060 3058 3057 3057 3056 3055 3056 3056 3059 3055 3044 3041 3036 3032 3027 3023 3015 3008 3004
3053 3054 3055 3056 3059 3056 3056 3057 3058 3057 3057 3057 3056 3055 3055 3058 3061 3061 3062 3061 3061 3061 3060 3060 3059 3058 3058 3057 3056 3056 3055 3055 3055 3055 3053 3053 3045 3040 3037 3035 3030 3025 3019 3012 3008
3045 3046 3046 3049 3050 3050 3051 3052 3052 3052 3052 3051 3051 3051 3052 3056 3061 3059 3060 3061 3060 3060 3059 3059 3058 3057 3056 3059 3056 3054 3054 3054 3054 3053 3052 3053 3044 3040 3038 3036 3030 3025 3021 3013 3010
3039 3038 3038 3041 3043 3046 3046 3047 3047 3047 3047 3047 3047 3047 3048 3051 3055 3056 3059 3059 3058 3058 3058 3058 3057 3057 3058 3055 3054 3053 3052 3052 3052 3052 3049 3045 3042 3042 3036 3032 3028 3023 3021 3015 3010
3031 3027 3030 3032 3037 3040 3041 3042 3042 3043 3043 3043 3042 3042 3045 3048 3052 3055 3057 3057 3057 3057 3056 3057 3056 3055 3054 3052 3050 3051 3050 3049 3049 3049 3047 3043 3039 3036 3032 3029 3026 3022 3019 3017 3013
3019 3022 3024 3028 3031 3034 3035 3035 3037 3038 3039 3039 3039 3039 3041 3045 3049 3052 3054 3055 3056 3055 3055 3055 3054 3053 3052 3050 3048 3047 3046 3046 3046 3045 3043 3040 3038 3034 3031 3028 3026 3023 3019 3017 3011
3013 3013 3017 3021 3025 3028 3030 3030 3032 3033 3034 3034 3035 3036 3038 3043 3047 3049 3051 3053 3054 3053 3053 3053 3052 3052 3049 3048 3046 3045 3045 3043 3043 3043 3042 3039 3037 3033 3031 3027 3023 3020 3016 3015 3011